SCP
0 0 0 0 0 0 0 0 0 0 -0 -0 0 0 0 0 0 0 0 0 0 0 0 0 0 -0 -0 0 0 0 0 0
0 0 0 0 0 0 0 0 0 0 0 0 0 0 0 0 0 0 0 0 0 -0 -0 0 0 -0 0 -0 0 -0 -0 -0
0 0 0 0 0 0 0 0 0 -0 -0 -0 0 -0 0 0 0 -0 -0 0 0 -0 -0 0 -0 -0 -0 -0 -0 0 0 0
0 0 0 0 0 0 0 0 0 0 -0 0 0 -0 -0 -0 -0 0 0 -0 -0 -0 -0 -0 0 -0 -0 0 0 -0 -0 -0
0 0 0 0 -0 0 0 -0 -0 -0 0 -0 0 0 0 -0 0 0 0 0 0 0 -0 -0 -0 -0 -0 -0 -0 -0 -0 -0
0 0 0 0 -0 -0 -0 -0 -0 -0 -0 -0 -0 -0 -0 -0 -0 -0 -0 -0 -0 -0 0 0 0 -0 -0 -0 -0 -0 -0 -0
0 0 0 0 0 -0 -0 0 -0 -0 -0 -0 -0 -0 -0 -0 -0 -0 -0 -0 -0 -0 -0 -0 -0 0 0 0 0 0 -0 -0
0 0 0 0 0 -0 -0 0 -0 0 0 -0 -0 -0 -0 -0 -0 -0 -0 -0 -0 -0 -0 -0 -0 0 0 0 0 0 0 0
0 0 0 0 0 0 0 0 0 0 -0 -0 -0 -0 0 -0 -0 -0 -0 -0 -0 -0 -0 -0 -0 0 0 -0 0 0 0 -0
0 0 0 0 0 0 0 0 0 0 0 0 -0 -0 -0 -0 0 0 0 0 0 0 0 -0 -0 -0 -0 -0 0 0 0 0
0 0 0 0 0 0 0 0 0 0 0 0 0 0 0 -0 -0 -0 -0 -0 -0 -0 0 0 0 -0 -0 0 0 0 0 0
0 0 0 0 0 0 0 0 0 0 0 0 0 0 0 0 0 0 0 0 0 0 0 0 0 0 0 0 0 0 0 0
0 0 0 0 0 0 0 0 0 0 0 0 0 0 0 0 0 0 0 0 0 0 0 0 0 0 0 0 0 0 0 0
0 0 0 0 0 0 0 0 0 0 0 0 0 0 0 0 0 0 0 0 0 0 0 0 0 0 0 0 0 0 0 0
0 0 0 0 0 0 0 0 0 0 0 0 0 0 0 0 0 0 0 0 0 0 0 0 0 0 0 0 0 0 0 0
0 0 0 0 0 0 0 0 0 0 0 0 0 0 0 0 0 0 0 0 0 0 0 0 0 0 0 0 0 0 0 0
0 0 0 0 0 0 0 0 0 0 0 0 0 0 0 0 0 0 0 0 0 0 0 0 0 0 0 0 0 0 0 0
0 0 0 0 0 0 0 0 0 0 0 0 0 0 0 0 0 0 0 0 0 0 0 0 0 0 0 0 0 0 0 0
0 0 0 0 0 0 0 0 0 0 0 0 0 0 0 0 0 0 0 0 0 0 0 0 0 0 0 0 0 0 0 0
0 0 0 0 0 0 0 0 0 0 0 0 0 0 0 0 0 0 0 0 0 0 0 0 0 0 0 0 0 0 0 0
Wind_Speed_500mb
14 8 5 8 15 20 25 33 39 33 23 23 24 22 23 41 39 36 39 32 28 32 28 31 25 31 48 58 55 46 46 51
20 12 10 5 15 13 17 21 33 37 33 26 20 21 18 30 38 33 32 37 34 35 62 69 64 53 57 61 54 51 64 54
24 17 15 11 13 15 15 15 23 35 37 39 34 34 32 28 30 35 44 51 59 60 57 60 62 62 65 72 57 54 53 46
36 27 22 19 16 18 18 20 22 24 25 31 40 48 53 53 54 54 55 60 63 63 63 63 64 58 56 56 52 50 45 40
44 37 31 27 24 22 24 22 24 26 29 35 39 45 50 58 58 57 58 54 51 52 53 54 51 47 47 45 45 44 43 38
55 49 41 38 36 33 33 28 28 29 26 33 38 42 44 46 48 48 47 50 49 50 50 48 44 40 39 39 40 41 41 39
62 57 53 48 46 45 36 39 38 31 25 26 30 34 36 38 41 43 44 46 46 45 46 47 45 43 42 40 41 40 38 38
72 70 63 57 54 57 51 46 42 33 32 33 33 30 32 34 36 38 41 43 43 43 43 44 45 44 41 39 38 37 35 33
75 76 70 64 61 61 60 54 49 45 44 43 41 39 36 35 35 37 39 37 38 41 42 42 45 44 40 37 35 35 34 31
61 74 76 74 71 69 69 64 58 56 55 52 48 47 44 42 38 36 37 39 39 39 40 40 41 41 39 36 34 31 30 29
58 67 85 83 80 78 78 76 72 64 61 57 54 53 51 49 48 43 40 39 40 41 42 41 38 39 40 39 36 33 30 26
41 59 69 87 89 89 86 88 79 70 68 65 61 57 55 55 54 52 50 47 44 41 41 42 42 42 41 40 40 35 29 24
35 48 60 76 93 96 97 83 82 80 76 74 69 65 63 61 59 59 57 56 54 50 48 47 46 46 45 44 41 37 33 28
33 44 54 62 88 101 96 88 83 85 85 82 77 73 71 70 70 68 66 64 62 61 58 55 52 51 50 46 42 40 37 35
31 41 54 60 73 93 97 93 88 88 89 89 88 84 81 78 76 76 76 73 71 68 65 60 59 56 53 49 49 48 46 44
32 37 46 56 64 78 94 99 94 91 91 95 94 93 90 88 86 85 81 78 75 72 68 65 65 60 53 53 54 51 48 50
35 37 39 46 58 68 84 95 98 96 95 98 100 99 97 94 92 90 86 81 77 74 69 63 61 57 55 54 55 55 56 59
45 43 42 44 52 58 69 86 99 101 99 98 100 102 103 103 101 98 94 89 87 84 79 74 68 65 62 61 61 61 63 68
43 43 46 48 50 56 57 71 85 97 100 99 99 102 106 107 107 104 102 100 97 93 90 84 80 76 72 68 66 70 76 78
48 43 46 51 49 49 58 65 74 84 97 101 101 100 103 105 107 108 107 106 102 97 93 88 85 80 78 77 83 85 85 83
Wind_Direction_500mb
222 234 257 40 47 63 39 24 34 34 33 46 80 88 103 121 124 135 134 142 135 148 153 150 154 157 150 133 128 123 124 124
205 214 228 112 71 68 59 47 55 54 53 66 86 98 105 120 122 124 134 135 133 134 125 123 125 129 130 129 128 134 132 136
203 205 222 174 113 94 86 78 81 75 67 68 83 92 101 102 110 121 127 128 124 128 127 124 126 125 126 125 128 130 137 137
207 203 214 194 154 128 123 110 97 100 93 89 90 96 98 100 105 109 115 118 121 123 123 123 128 124 124 129 133 135 135 136
213 204 207 203 174 144 149 134 117 112 115 114 112 109 112 111 114 116 118 118 119 119 120 123 128 127 128 134 136 134 133 136
213 207 203 205 191 166 163 155 144 136 132 128 125 125 123 121 120 119 123 125 127 127 127 126 127 128 131 133 132 132 133 130
217 211 206 205 204 184 174 171 165 159 158 152 144 139 137 133 132 133 133 132 133 134 133 133 134 132 134 135 135 134 133 134
222 216 209 206 206 199 188 183 181 184 179 173 165 158 151 147 146 146 143 143 143 142 142 143 143 141 144 144 144 141 139 137
232 222 215 210 207 208 200 199 199 197 190 183 178 171 170 166 165 162 157 154 155 155 155 156 152 150 152 153 153 150 147 142
249 230 220 212 209 209 208 205 203 198 195 192 187 182 180 178 178 177 173 169 170 168 166 167 164 160 161 163 164 161 158 153
250 238 225 216 211 210 211 210 208 204 198 197 195 192 189 189 185 186 186 186 184 180 177 176 178 177 176 174 176 179 175 168
241 244 235 221 215 212 213 215 212 208 205 203 202 201 199 197 195 193 193 194 197 196 193 190 190 191 191 190 189 190 192 190
250 240 235 225 219 217 217 217 215 211 210 209 208 206 206 205 203 201 201 201 202 203 204 205 204 203 204 205 202 200 203 212
260 242 233 230 222 221 222 220 217 215 213 212 212 213 212 211 209 209 209 209 209 209 210 211 214 215 215 215 216 218 218 222
268 246 235 230 227 226 224 223 220 218 217 216 215 215 216 216 217 218 217 215 215 216 217 217 219 221 223 225 227 227 227 230
279 264 251 238 233 228 226 226 224 221 220 220 220 219 220 221 221 223 224 226 227 226 224 223 226 230 232 234 236 237 236 238
288 274 261 249 239 233 228 228 228 226 223 223 223 223 223 225 226 226 228 230 232 234 237 238 239 239 240 240 240 238 237 240
286 285 269 256 246 237 235 233 231 229 228 227 227 227 227 228 229 231 231 230 231 233 234 235 237 238 239 239 240 240 241 242
283 269 260 254 250 241 234 239 239 236 234 233 232 232 232 232 234 234 235 236 236 235 236 235 236 237 238 238 239 240 242 245
276 272 255 250 248 242 235 233 237 239 237 236 236 237 238 238 237 238 239 241 242 242 241 241 242 241 241 241 243 247 249 253
Wind_Speed_850mb
14 8 5 8 15 20 25 33 39 33 23 23 24 22 23 41 39 36 39 32 28 32 28 31 25 31 48 58 55 46 46 51
20 12 10 5 15 13 17 21 33 37 33 26 20 21 18 30 38 33 32 37 34 35 62 69 64 53 57 61 54 51 64 54
24 17 15 11 13 15 15 15 23 35 37 39 34 34 32 28 30 35 44 51 59 60 57 60 62 62 65 72 57 54 53 46
36 27 22 19 16 18 18 20 22 24 25 31 40 48 53 53 54 54 55 60 63 63 63 63 64 58 56 56 52 50 45 40
44 37 31 27 24 22 24 22 24 26 29 35 39 45 50 58 58 57 58 54 51 52 53 54 51 47 47 45 45 44 43 38
55 49 41 38 36 33 33 28 28 29 26 33 38 42 44 46 48 48 47 50 49 50 50 48 44 40 39 39 40 41 41 39
62 57 53 48 46 45 36 39 38 31 25 26 30 34 36 38 41 43 44 46 46 45 46 47 45 43 42 40 41 40 38 38
72 70 63 57 54 57 51 46 42 33 32 33 33 30 32 34 36 38 41 43 43 43 43 44 45 44 41 39 38 37 35 33
75 76 70 64 61 61 60 54 49 45 44 43 41 39 36 35 35 37 39 37 38 41 42 42 45 44 40 37 35 35 34 31
61 74 76 74 71 69 69 64 58 56 55 52 48 47 44 42 38 36 37 39 39 39 40 40 41 41 39 36 34 31 30 29
58 67 85 83 80 78 78 76 72 64 61 57 54 53 51 49 48 43 40 39 40 41 42 41 38 39 40 39 36 33 30 26
41 59 69 87 89 89 86 88 79 70 68 65 61 57 55 55 54 52 50 47 44 41 41 42 42 42 41 40 40 35 29 24
35 48 60 76 93 96 97 83 82 80 76 74 69 65 63 61 59 59 57 56 54 50 48 47 46 46 45 44 41 37 33 28
33 44 54 62 88 101 96 88 83 85 85 82 77 73 71 70 70 68 66 64 62 61 58 55 52 51 50 46 42 40 37 35
31 41 54 60 73 93 97 93 88 88 89 89 88 84 81 78 76 76 76 73 71 68 65 60 59 56 53 49 49 48 46 44
32 37 46 56 64 78 94 99 94 91 91 95 94 93 90 88 86 85 81 78 75 72 68 65 65 60 53 53 54 51 48 50
35 37 39 46 58 68 84 95 98 96 95 98 100 99 97 94 92 90 86 81 77 74 69 63 61 57 55 54 55 55 56 59
45 43 42 44 52 58 69 86 99 101 99 98 100 102 103 103 101 98 94 89 87 84 79 74 68 65 62 61 61 61 63 68
43 43 46 48 50 56 57 71 85 97 100 99 99 102 106 107 107 104 102 100 97 93 90 84 80 76 72 68 66 70 76 78
48 43 46 51 49 49 58 65 74 84 97 101 101 100 103 105 107 108 107 106 102 97 93 88 85 80 78 77 83 85 85 83
Wind_Direction_850mb
222 234 257 40 47 63 39 24 34 34 33 46 80 88 103 121 124 135 134 142 135 148 153 150 154 157 150 133 128 123 124 124
205 214 228 112 71 68 59 47 55 54 53 66 86 98 105 120 122 124 134 135 133 134 125 123 125 129 130 129 128 134 132 136
203 205 222 174 113 94 86 78 81 75 67 68 83 92 101 102 110 121 127 128 124 128 127 124 126 125 126 125 128 130 137 137
207 203 214 194 154 128 123 110 97 100 93 89 90 96 98 100 105 109 115 118 121 123 123 123 128 124 124 129 133 135 135 136
213 204 207 203 174 144 149 134 117 112 115 114 112 109 112 111 114 116 118 118 119 119 120 123 128 127 128 134 136 134 133 136
213 207 203 205 191 166 163 155 144 136 132 128 125 125 123 121 120 119 123 125 127 127 127 126 127 128 131 133 132 132 133 130
217 211 206 205 204 184 174 171 165 159 158 152 144 139 137 133 132 133 133 132 133 134 133 133 134 132 134 135 135 134 133 134
222 216 209 206 206 199 188 183 181 184 179 173 165 158 151 147 146 146 143 143 143 142 142 143 143 141 144 144 144 141 139 137
232 222 215 210 207 208 200 199 199 197 190 183 178 171 170 166 165 162 157 154 155 155 155 156 152 150 152 153 153 150 147 142
249 230 220 212 209 209 208 205 203 198 195 192 187 182 180 178 178 177 173 169 170 168 166 167 164 160 161 163 164 161 158 153
250 238 225 216 211 210 211 210 208 204 198 197 195 192 189 189 185 186 186 186 184 180 177 176 178 177 176 174 176 179 175 168
241 244 235 221 215 212 213 215 212 208 205 203 202 201 199 197 195 193 193 194 197 196 193 190 190 191 191 190 189 190 192 190
250 240 235 225 219 217 217 217 215 211 210 209 208 206 206 205 203 201 201 201 202 203 204 205 204 203 204 205 202 200 203 212
260 242 233 230 222 221 222 220 217 215 213 212 212 213 212 211 209 209 209 209 209 209 210 211 214 215 215 215 216 218 218 222
268 246 235 230 227 226 224 223 220 218 217 216 215 215 216 216 217 218 217 215 215 216 217 217 219 221 223 225 227 227 227 230
279 264 251 238 233 228 226 226 224 221 220 220 220 219 220 221 221 223 224 226 227 226 224 223 226 230 232 234 236 237 236 238
288 274 261 249 239 233 228 228 228 226 223 223 223 223 223 225 226 226 228 230 232 234 237 238 239 239 240 240 240 238 237 240
286 285 269 256 246 237 235 233 231 229 228 227 227 227 227 228 229 231 231 230 231 233 234 235 237 238 239 239 240 240 241 242
283 269 260 254 250 241 234 239 239 236 234 233 232 232 232 232 234 234 235 236 236 235 236 235 236 237 238 238 239 240 242 245
276 272 255 250 248 242 235 233 237 239 237 236 236 237 238 238 237 238 239 241 242 242 241 241 242 241 241 241 243 247 249 253